Observations for Trim Market St
| Time | AQI | Temp °C | Hum % | Pres Pa | CO μg/m³ | H₂S μg/m³ | NO μg/m³ | NO₂ μg/m³ | O₃ μg/m³ | SO₂ μg/m³ | PM1 μg/m³ | PM2.5 μg/m³ | PM10 μg/m³ |
|---|---|---|---|---|---|---|---|---|---|---|---|---|---|
| Saturday 11 July 2026 | |||||||||||||
| 00:46 | 1 | 19 | 69 | 55,440 | 0 | 0 | 0.4 | 9.86 | 8.69 | 0 | 1.43 | 2.6 | 5.64 |
| 00:44 | 1 | 19 | 69 | 55,507 | 0 | 0 | 0 | 5.37 | 15.98 | 0 | 0.71 | 2.12 | 4.37 |
| 00:43 | 1 | 19 | 69 | 55,531 | 0.07 | 0 | 0 | 4.97 | 11.59 | 0 | 0.71 | 2.12 | 3.74 |
| 00:42 | 1 | 19.1 | 69 | 55,561 | 0.04 | 0 | 3.12 | 9.05 | 9.17 | 0 | 0 | 1.63 | 3.74 |
| 00:41 | 1 | 19.1 | 69 | 55,604 | 0 | 0 | 0 | 7.15 | 9.56 | 0 | 0.71 | 2.61 | 4.37 |
| 00:40 | 1 | 19.1 | 69 | 55,644 | 0 | 0 | 0 | 4.96 | 12.61 | 0 | 0 | 1.64 | 3.1 |
| 00:39 | 1 | 19.1 | 69 | 55,681 | 0 | 0 | 0 | 6.06 | 9.54 | 0 | 0 | 2.13 | 3.73 |
| 00:38 | 1 | 19.1 | 69 | 55,719 | 0 | 0 | 0 | 4.36 | 13.95 | 0 | 0.71 | 2.13 | 3.73 |
| 00:35 | 1 | 19.2 | 69 | 55,824 | 0 | 0 | 0 | 4.06 | 13.87 | 0 | 0 | 2.62 | 4.36 |
| 00:34 | 1 | 19.2 | 69 | 55,853 | 0 | 0 | 0 | 5.06 | 9.32 | 0 | 0.71 | 2.14 | 3.73 |
| 00:30 | 1 | 19.2 | 69 | 55,915 | 0 | 0 | 0 | 3.68 | 14.43 | 0 | 0.71 | 1.66 | 3.72 |
| 00:29 | 1 | 19.3 | 69 | 55,942 | 0 | 0 | 0 | 4.75 | 11.92 | 0 | 0.71 | 4.1 | 7.53 |
| 00:26 | 1 | 19.3 | 68 | 56,023 | 0 | 0 | 0 | 8.87 | 22.21 | 0 | 0.71 | 2.64 | 4.99 |
| 00:23 | 1 | 19.4 | 68 | 56,089 | 0 | 0 | 0 | 1.05 | 11.55 | 0 | 0.71 | 2.64 | 4.35 |
| 00:16 | 1 | 19.5 | 68 | 56,231 | 0 | 0 | 0 | 3.97 | 10.12 | 0 | 0 | 2.17 | 4.34 |
| 00:15 | 1 | 19.5 | 68 | 56,246 | 0 | 0 | 0 | 5.07 | 14.97 | 0 | 0 | 2.17 | 3.7 |
| 00:14 | 1 | 19.5 | 68 | 56,256 | 0 | 0 | 0 | 3.67 | 13.63 | 0 | 0 | 2.17 | 4.34 |
| 00:13 | 1 | 19.5 | 68 | 56,262 | 0 | 0 | 0 | 4.58 | 11.69 | 0 | 0.71 | 2.66 | 4.33 |
| 00:12 | 1 | 19.5 | 68 | 56,276 | 0 | 0 | 0 | 4.08 | 12.14 | 0 | 0 | 2.18 | 3.69 |
| 00:11 | 1 | 19.6 | 68 | 56,298 | 0 | 0 | 0 | 6.05 | 14.33 | 0 | 0 | 2.66 | 4.97 |